| time (UTC) | temp C | wind direction | speed KPH | gust KPH | rain 1hr cm | rain 24hr cm | rain mn cm | humidity % | barometer mb |
| 20260506012326 | 18 | 270 | 0.0 | 0.0 | 0.00 | 0.00 | 0.00 | 62 | 1017.0 |
| 20260506011823 | 18 | 270 | 0.0 | 0.0 | 0.00 | 0.00 | 0.00 | 61 | 1016.8 |
| 20260506011320 | 18 | 270 | 0.0 | 0.0 | 0.00 | 0.00 | 0.00 | 60 | 1017.0 |
| 20260506010817 | 18 | 270 | 0.0 | 0.0 | 0.00 | 0.00 | 0.00 | 59 | 1016.7 |
| 20260506010315 | 18 | 270 | 0.0 | 0.0 | 0.00 | 0.00 | 0.00 | 58 | 1016.9 |
| 20260506005812 | 19 | 270 | 0.0 | 0.0 | 0.00 | 0.00 | 0.00 | 58 | 1016.8 |
| 20260506005308 | 19 | 270 | 0.0 | 0.0 | 0.00 | 0.00 | 0.00 | 56 | 1016.8 |
| 20260506004805 | 20 | 270 | 0.0 | 0.0 | 0.00 | 0.00 | 0.00 | 57 | 1016.6 |
| 20260506004302 | 20 | 270 | 0.0 | 1.6 | 0.00 | 0.00 | 0.00 | 55 | 1016.5 |
| 20260506003758 | 20 | 66 | 0.0 | 0.0 | 0.00 | 0.00 | 0.00 | 54 | 1016.5 |
| 20260506003255 | 21 | 66 | 0.0 | 0.0 | 0.00 | 0.00 | 0.00 | 54 | 1016.5 |
| 20260506002751 | 21 | 66 | 0.0 | 0.0 | 0.00 | 0.00 | 0.00 | 52 | 1016.6 |
| 20260506002247 | 21 | 66 | 0.0 | 0.0 | 0.00 | 0.00 | 0.00 | 51 | 1016.4 |
| 20260506001743 | 22 | 66 | 0.0 | 0.0 | 0.00 | 0.00 | 0.00 | 50 | 1016.8 |
| 20260506001241 | 22 | 66 | 0.0 | 0.0 | 0.00 | 0.00 | 0.00 | 49 | 1016.6 |
| 20260506000737 | 22 | 11 | 0.0 | 3.2 | 0.00 | 0.00 | 0.00 | 48 | 1016.6 |
| 20260506000235 | 22 | 99 | 0.0 | 4.8 | 0.00 | 0.00 | 0.00 | 48 | 1016.4 |
| 20260505235732 | 23 | 14 | 0.0 | 3.2 | 0.00 | 0.00 | 0.00 | 46 | 1016.5 |
| 20260505235230 | 23 | 82 | 0.0 | 0.0 | 0.00 | 0.00 | 0.00 | 45 | 1016.5 |
| 20260505234726 | 25 | 66 | 0.0 | 0.0 | 0.00 | 0.00 | 0.00 | 43 | 1016.4 |
| 20260505234224 | 25 | 270 | 0.0 | 3.2 | 0.00 | 0.00 | 0.00 | 42 | 1016.3 |
| 20260505233720 | 26 | 26 | 0.0 | 0.0 | 0.00 | 0.00 | 0.00 | 42 | 1016.2 |
| 20260505233218 | 26 | 261 | 0.0 | 1.6 | 0.00 | 0.00 | 0.00 | 41 | 1016.1 |
| 20260505232715 | 26 | 265 | 0.0 | 3.2 | 0.00 | 0.00 | 0.00 | 41 | 1016.3 |
| 20260505232212 | 27 | 81 | 0.0 | 1.6 | 0.00 | 0.00 | 0.00 | 40 | 1016.3 |
| 20260505231709 | 28 | 285 | 1.6 | 1.6 | 0.00 | 0.00 | 0.00 | 38 | 1016.4 |
| 20260505231208 | 29 | 106 | 0.0 | 0.0 | 0.00 | 0.00 | 0.00 | 38 | 1016.5 |
| 20260505230706 | 28 | 106 | 0.0 | 1.6 | 0.00 | 0.00 | 0.00 | 40 | 1016.3 |
| 20260505230202 | 28 | 265 | 3.2 | 3.2 | 0.00 | 0.00 | 0.00 | 39 | 1016.3 |
| 20260505225658 | 28 | 261 | 0.0 | 1.6 | 0.00 | 0.00 | 0.00 | 38 | 1016.4 |
| 20260505225155 | 29 | 289 | 0.0 | 3.2 | 0.00 | 0.00 | 0.00 | 38 | 1016.3 |
| 20260505224651 | 27 | 57 | 0.0 | 3.2 | 0.00 | 0.00 | 0.00 | 38 | 1016.3 |
| 20260505224149 | 27 | 127 | 0.0 | 3.2 | 0.00 | 0.00 | 0.00 | 41 | 1016.2 |
| 20260505223646 | 27 | 131 | 0.0 | 3.2 | 0.00 | 0.00 | 0.00 | 41 | 1016.2 |
| 20260505223142 | 26 | 90 | 0.0 | 3.2 | 0.00 | 0.00 | 0.00 | 42 | 1016.3 |
| 20260505222632 | 28 | 270 | 0.0 | 3.2 | 0.00 | 0.00 | 0.00 | 40 | 1016.4 |
| 20260505222129 | 26 | 114 | 0.0 | 1.6 | 0.00 | 0.00 | 0.00 | 44 | 1016.5 |
| 20260505221626 | 26 | 71 | 0.0 | 4.8 | 0.00 | 0.00 | 0.00 | 42 | 1016.6 |
| 20260505221122 | 29 | 262 | 0.0 | 4.8 | 0.00 | 0.00 | 0.00 | 39 | 1016.5 |
| 20260505220620 | 30 | 291 | 0.0 | 1.6 | 0.00 | 0.00 | 0.00 | 38 | 1016.3 |
| 20260505220118 | 29 | 180 | 0.0 | 3.2 | 0.00 | 0.00 | 0.00 | 43 | 1016.4 |
| 20260505215615 | 27 | 14 | 4.8 | 6.4 | 0.00 | 0.00 | 0.00 | 38 | 1016.4 |
| 20260505215113 | 28 | 270 | 0.0 | 4.8 | 0.00 | 0.00 | 0.00 | 38 | 1016.6 |
| 20260505214611 | 28 | 275 | 0.0 | 4.8 | 0.00 | 0.00 | 0.00 | 39 | 1016.5 |
| 20260505214108 | 26 | 90 | 0.0 | 3.2 | 0.00 | 0.00 | 0.00 | 41 | 1016.7 |
| 20260505213605 | 28 | 12 | 4.8 | 4.8 | 0.00 | 0.00 | 0.00 | 40 | 1016.7 |
| 20260505213102 | 30 | 270 | 0.0 | 3.2 | 0.00 | 0.00 | 0.00 | 40 | 1016.6 |
| 20260505212558 | 29 | 0 | 1.6 | 4.8 | 0.00 | 0.00 | 0.00 | 36 | 1016.5 |
| 20260505212056 | 28 | 75 | 4.8 | 4.8 | 0.00 | 0.00 | 0.00 | 41 | 1016.7 |
| 20260505211552 | 27 | 279 | 0.0 | 11.3 | 0.00 | 0.00 | 0.00 | 40 | 1016.9 |
| 20260505211049 | 28 | 97 | 0.0 | 8.0 | 0.00 | 0.00 | 0.00 | 40 | 1016.7 |
| 20260505210546 | 30 | 262 | 0.0 | 3.2 | 0.00 | 0.00 | 0.00 | 39 | 1016.9 |
| 20260505210043 | 28 | 132 | 3.2 | 6.4 | 0.00 | 0.00 | 0.00 | 39 | 1016.9 |
| 20260505205541 | 28 | 263 | 0.0 | 4.8 | 0.00 | 0.00 | 0.00 | 42 | 1016.9 |
| 20260505205038 | 27 | 294 | 0.0 | 4.8 | 0.00 | 0.00 | 0.00 | 39 | 1016.7 |
| 20260505204535 | 28 | 79 | 4.8 | 6.4 | 0.00 | 0.00 | 0.00 | 37 | 1016.9 |
| 20260505204033 | 27 | 90 | 0.0 | 8.0 | 0.00 | 0.00 | 0.00 | 40 | 1016.9 |
| 20260505203529 | 26 | 90 | 3.2 | 8.0 | 0.00 | 0.00 | 0.00 | 41 | 1017.1 |
| 20260505203026 | 27 | 343 | 8.0 | 12.9 | 0.00 | 0.00 | 0.00 | 41 | 1017.0 |
| 20260505202522 | 27 | 240 | 0.0 | 8.0 | 0.00 | 0.00 | 0.00 | 39 | 1017.1 |
| 20260505202018 | 27 | 0 | 0.0 | 4.8 | 0.00 | 0.00 | 0.00 | 38 | 1017.1 |
| 20260505201516 | 28 | 71 | 0.0 | 4.8 | 0.00 | 0.00 | 0.00 | 40 | 1017.4 |
| 20260505201013 | 28 | 275 | 3.2 | 3.2 | 0.00 | 0.00 | 0.00 | 42 | 1017.2 |
| 20260505200511 | 27 | 69 | 0.0 | 4.8 | 0.00 | 0.00 | 0.00 | 40 | 1017.4 |
| 20260505200007 | 28 | 270 | 0.0 | 4.8 | 0.00 | 0.00 | 0.00 | 40 | 1017.2 |
| 20260505195503 | 28 | 270 | 1.6 | 3.2 | 0.00 | 0.00 | 0.00 | 41 | 1017.3 |
| 20260505195001 | 28 | 278 | 1.6 | 4.8 | 0.00 | 0.00 | 0.00 | 40 | 1017.3 |
| 20260505194458 | 29 | 270 | 3.2 | 4.8 | 0.00 | 0.00 | 0.00 | 40 | 1017.7 |
| 20260505193958 | 28 | 203 | 3.2 | 3.2 | 0.00 | 0.00 | 0.00 | 41 | 1017.6 |
| 20260505193456 | 28 | 75 | 1.6 | 4.8 | 0.00 | 0.00 | 0.00 | 40 | 1017.5 |
| 20260505192953 | 28 | 7 | 1.6 | 8.0 | 0.00 | 0.00 | 0.00 | 42 | 1017.6 |
| 20260505192452 | 28 | 71 | 4.8 | 9.7 | 0.00 | 0.00 | 0.00 | 39 | 1018.0 |
| 20260505191949 | 30 | 321 | 0.0 | 4.8 | 0.00 | 0.00 | 0.00 | 41 | 1017.8 |
| 20260505191447 | 30 | 26 | 3.2 | 4.8 | 0.00 | 0.00 | 0.00 | 40 | 1018.1 |
| 20260505190944 | 27 | 90 | 1.6 | 9.7 | 0.00 | 0.00 | 0.00 | 41 | 1018.1 |
| 20260505190439 | 28 | 297 | 0.0 | 6.4 | 0.00 | 0.00 | 0.00 | 41 | 1018.2 |
| 20260505185935 | 27 | 28 | 4.8 | 4.8 | 0.00 | 0.00 | 0.00 | 40 | 1018.2 |
| 20260505185432 | 28 | 289 | 3.2 | 4.8 | 0.00 | 0.00 | 0.00 | 43 | 1018.3 |
| 20260505184928 | 28 | 321 | 9.7 | 11.3 | 0.00 | 0.00 | 0.00 | 41 | 1018.2 |
| 20260505184425 | 27 | 83 | 4.8 | 6.4 | 0.00 | 0.00 | 0.00 | 42 | 1018.4 |
| 20260505183922 | 29 | 0 | 3.2 | 8.0 | 0.00 | 0.00 | 0.00 | 43 | 1018.3 |
| 20260505183419 | 27 | 212 | 0.0 | 8.0 | 0.00 | 0.00 | 0.00 | 42 | 1018.5 |
| 20260505182916 | 28 | 82 | 0.0 | 3.2 | 0.00 | 0.00 | 0.00 | 40 | 1018.6 |
| 20260505182413 | 28 | 270 | 1.6 | 3.2 | 0.00 | 0.00 | 0.00 | 44 | 1018.7 |
| 20260505181909 | 27 | 16 | 0.0 | 4.8 | 0.00 | 0.00 | 0.00 | 42 | 1019.0 |
| 20260505181406 | 27 | 90 | 0.0 | 9.7 | 0.00 | 0.00 | 0.00 | 45 | 1018.9 |
| 20260505180903 | 27 | 90 | 0.0 | 3.2 | 0.00 | 0.00 | 0.00 | 42 | 1019.0 |
| 20260505180359 | 26 | 294 | 3.2 | 4.8 | 0.00 | 0.00 | 0.00 | 43 | 1019.2 |
| 20260505175856 | 27 | 297 | 0.0 | 4.8 | 0.00 | 0.00 | 0.00 | 46 | 1019.2 |
| 20260505175352 | 28 | 99 | 1.6 | 6.4 | 0.00 | 0.00 | 0.00 | 40 | 1019.1 |
| 20260505174849 | 26 | 90 | 0.0 | 12.9 | 0.00 | 0.00 | 0.00 | 47 | 1019.3 |
| 20260505174347 | 26 | 270 | 0.0 | 4.8 | 0.00 | 0.00 | 0.00 | 45 | 1019.3 |
| 20260505173842 | 26 | 261 | 0.0 | 9.7 | 0.00 | 0.00 | 0.00 | 42 | 1019.0 |
| 20260505173339 | 27 | 263 | 0.0 | 8.0 | 0.00 | 0.00 | 0.00 | 46 | 1018.9 |
| 20260505172836 | 27 | 82 | 4.8 | 4.8 | 0.00 | 0.00 | 0.00 | 41 | 1019.1 |
| 20260505172334 | 27 | 270 | 4.8 | 4.8 | 0.00 | 0.00 | 0.00 | 42 | 1019.0 |
| 20260505171833 | 27 | 312 | 3.2 | 4.8 | 0.00 | 0.00 | 0.00 | 41 | 1019.0 |
| 20260505171330 | 27 | 84 | 0.0 | 4.8 | 0.00 | 0.00 | 0.00 | 41 | 1019.3 |
| 20260505170827 | 27 | 277 | 0.0 | 3.2 | 0.00 | 0.00 | 0.00 | 49 | 1019.1 |
| 20260505170324 | 26 | 54 | 1.6 | 4.8 | 0.00 | 0.00 | 0.00 | 43 | 1019.1 |
| 20260505165819 | 26 | 99 | 0.0 | 1.6 | 0.00 | 0.00 | 0.00 | 47 | 1019.1 |
| 20260505165315 | 26 | 315 | 12.9 | 12.9 | 0.00 | 0.00 | 0.00 | 42 | 1019.1 |
| 20260505164811 | 26 | 60 | 0.0 | 6.4 | 0.00 | 0.00 | 0.00 | 41 | 1019.4 |
| 20260505164308 | 25 | 94 | 3.2 | 4.8 | 0.00 | 0.00 | 0.00 | 46 | 1019.3 |
| 20260505163806 | 25 | 63 | 3.2 | 8.0 | 0.00 | 0.00 | 0.00 | 51 | 1019.6 |
| 20260505163304 | 24 | 315 | 4.8 | 8.0 | 0.00 | 0.00 | 0.00 | 49 | 1019.7 |
| 20260505162802 | 25 | 0 | 0.0 | 6.4 | 0.00 | 0.00 | 0.00 | 49 | 1019.5 |
| 20260505162258 | 25 | 291 | 0.0 | 4.8 | 0.00 | 0.00 | 0.00 | 53 | 1019.6 |
| 20260505161755 | 24 | 322 | 3.2 | 6.4 | 0.00 | 0.00 | 0.00 | 54 | 1019.7 |
| 20260505161253 | 25 | 111 | 0.0 | 4.8 | 0.00 | 0.00 | 0.00 | 48 | 1019.7 |
| 20260505160750 | 25 | 60 | 0.0 | 1.6 | 0.00 | 0.00 | 0.00 | 53 | 1019.7 |
| 20260505160248 | 25 | 45 | 3.2 | 3.2 | 0.00 | 0.00 | 0.00 | 53 | 1019.8 |
| 20260505153227 | 25 | 278 | 0.0 | 0.0 | 0.00 | 0.00 | 0.00 | 58 | 1020.1 |
| 20260505152724 | 23 | 90 | 0.0 | 3.2 | 0.00 | 0.00 | 0.00 | 59 | 1020.0 |
| 20260505152220 | 23 | 270 | 0.0 | 1.6 | 0.00 | 0.00 | 0.00 | 62 | 1020.0 |
| 20260505151715 | 23 | 63 | 4.8 | 6.4 | 0.00 | 0.00 | 0.00 | 59 | 1019.9 |
| 20260505151213 | 22 | 96 | 0.0 | 3.2 | 0.00 | 0.00 | 0.00 | 59 | 1020.0 |
| 20260505150709 | 22 | 262 | 1.6 | 9.7 | 0.00 | 0.00 | 0.00 | 60 | 1020.1 |
| 20260505150206 | 22 | 348 | 6.4 | 6.4 | 0.00 | 0.00 | 0.00 | 65 | 1019.9 |
| 20260505140639 | 19 | 97 | 0.0 | 4.8 | 0.00 | 0.00 | 0.00 | 73 | 1020.0 |
| 20260505140136 | 19 | 71 | 0.0 | 3.2 | 0.00 | 0.00 | 0.00 | 73 | 1019.9 |
| 20260505124549 | 15 | 117 | 0.0 | 3.2 | 0.00 | 0.00 | 0.00 | 85 | 1019.9 |
| 20260505124046 | 15 | 294 | 0.0 | 3.2 | 0.00 | 0.00 | 0.00 | 86 | 1019.9 |
| 20260505123542 | 14 | 300 | 0.0 | 4.8 | 0.00 | 0.00 | 0.00 | 86 | 1020.0 |
| 20260505123038 | 13 | 45 | 0.0 | 3.2 | 0.00 | 0.00 | 0.00 | 88 | 1019.8 |
| 20260505122535 | 13 | 82 | 0.0 | 3.2 | 0.00 | 0.00 | 0.00 | 88 | 1019.8 |
| 20260505122032 | 13 | 328 | 3.2 | 4.8 | 0.00 | 0.00 | 0.00 | 91 | 1019.7 |
| 20260505121529 | 12 | 279 | 0.0 | 1.6 | 0.00 | 0.00 | 0.00 | 93 | 1019.8 |
| 20260505121026 | 12 | 345 | 0.0 | 0.0 | 0.00 | 0.00 | 0.00 | 94 | 1019.8 |
| 20260505120522 | 12 | 306 | 0.0 | 0.0 | 0.00 | 0.00 | 0.00 | 95 | 1019.9 |
| 20260505120017 | 11 | 41 | 3.2 | 3.2 | 0.00 | 0.00 | 0.00 | 96 | 1019.6 |
| 20260505115512 | 11 | 169 | 0.0 | 1.6 | 0.00 | 0.00 | 0.00 | 96 | 1019.6 |
| 20260505115011 | 11 | 0 | 0.0 | 1.6 | 0.00 | 0.00 | 0.00 | 96 | 1019.3 |
| 20260505114507 | 10 | 114 | 1.6 | 1.6 | 0.00 | 0.00 | 0.00 | 96 | 1019.2 |
| 20260505114003 | 10 | 151 | 0.0 | 0.0 | 0.00 | 0.00 | 0.00 | 96 | 1019.4 |
| 20260505113500 | 10 | 151 | 0.0 | 0.0 | 0.00 | 0.00 | 0.00 | 96 | 1019.5 |
| 20260505112956 | 10 | 81 | 0.0 | 0.0 | 0.00 | 0.00 | 0.00 | 96 | 1019.4 |
| 20260505112453 | 10 | 81 | 0.0 | 0.0 | 0.00 | 0.00 | 0.00 | 96 | 1019.5 |
| 20260505111950 | 10 | 81 | 0.0 | 0.0 | 0.00 | 0.00 | 0.00 | 96 | 1019.5 |
| 20260505111444 | 9 | 66 | 0.0 | 0.0 | 0.00 | 0.00 | 0.00 | 95 | 1019.3 |
| 20260505110940 | 9 | 66 | 0.0 | 1.6 | 0.00 | 0.00 | 0.00 | 95 | 1019.3 |
| 20260505110438 | 9 | 99 | 0.0 | 0.0 | 0.00 | 0.00 | 0.00 | 95 | 1019.4 |
| 20260505101908 | 10 | 75 | 0.0 | 1.6 | 0.00 | 0.00 | 0.00 | 92 | 1019.4 |
| 20260505101403 | 10 | 60 | 0.0 | 0.0 | 0.00 | 0.00 | 0.00 | 91 | 1019.2 |
| 20260505100859 | 10 | 60 | 0.0 | 0.0 | 0.00 | 0.00 | 0.00 | 91 | 1019.3 |
| 20260505100356 | 10 | 75 | 0.0 | 1.6 | 0.00 | 0.00 | 0.00 | 90 | 1019.4 |
| 20260505095851 | 10 | 66 | 0.0 | 1.6 | 0.00 | 0.00 | 0.00 | 90 | 1019.2 |
| 20260505095349 | 11 | 74 | 0.0 | 0.0 | 0.00 | 0.00 | 0.00 | 89 | 1019.0 |
| 20260505094845 | 11 | 90 | 0.0 | 0.0 | 0.00 | 0.00 | 0.00 | 88 | 1019.2 |
| 20260505094342 | 11 | 35 | 0.0 | 0.0 | 0.00 | 0.00 | 0.00 | 88 | 1019.1 |
| 20260505093838 | 11 | 35 | 0.0 | 1.6 | 0.00 | 0.00 | 0.00 | 87 | 1019.0 |
| 20260505093335 | 11 | 23 | 0.0 | 0.0 | 0.00 | 0.00 | 0.00 | 86 | 1018.9 |
| 20260505092832 | 12 | 66 | 0.0 | 0.0 | 0.00 | 0.00 | 0.00 | 84 | 1019.1 |
| 20260505092331 | 12 | 66 | 0.0 | 0.0 | 0.00 | 0.00 | 0.00 | 84 | 1019.0 |
| 20260505091827 | 12 | 81 | 0.0 | 0.0 | 0.00 | 0.00 | 0.00 | 83 | 1018.7 |
| 20260505091325 | 12 | 74 | 0.0 | 1.6 | 0.00 | 0.00 | 0.00 | 82 | 1019.0 |
| 20260505090823 | 12 | 23 | 0.0 | 1.6 | 0.00 | 0.00 | 0.00 | 82 | 1018.8 |
| 20260505090321 | 12 | 20 | 0.0 | 3.2 | 0.00 | 0.00 | 0.00 | 83 | 1018.5 |
| 20260505085818 | 12 | 74 | 0.0 | 0.0 | 0.00 | 0.00 | 0.00 | 83 | 1018.5 |
| 20260505085316 | 12 | 74 | 0.0 | 0.0 | 0.00 | 0.00 | 0.00 | 83 | 1018.4 |
| 20260505084813 | 12 | 74 | 0.0 | 0.0 | 0.00 | 0.00 | 0.00 | 81 | 1018.7 |
| 20260505084312 | 12 | 90 | 0.0 | 0.0 | 0.00 | 0.00 | 0.00 | 81 | 1018.4 |
| 20260505083808 | 13 | 90 | 0.0 | 3.2 | 0.00 | 0.00 | 0.00 | 80 | 1018.5 |
| 20260505083306 | 13 | 29 | 1.6 | 3.2 | 0.00 | 0.00 | 0.00 | 80 | 1018.6 |
| 20260505082802 | 13 | 66 | 0.0 | 1.6 | 0.00 | 0.00 | 0.00 | 79 | 1018.4 |
| 20260505082259 | 13 | 18 | 1.6 | 1.6 | 0.00 | 0.00 | 0.00 | 79 | 1018.2 |
| 20260505081755 | 13 | 346 | 0.0 | 0.0 | 0.00 | 0.00 | 0.00 | 78 | 1018.3 |
| 20260505081252 | 13 | 14 | 0.0 | 1.6 | 0.00 | 0.00 | 0.00 | 78 | 1018.1 |
| 20260505080749 | 13 | 262 | 1.6 | 3.2 | 0.00 | 0.00 | 0.00 | 80 | 1018.2 |
| 20260505080244 | 13 | 66 | 1.6 | 1.6 | 0.00 | 0.00 | 0.00 | 78 | 1018.1 |
| 20260505075740 | 13 | 66 | 0.0 | 3.2 | 0.00 | 0.00 | 0.00 | 78 | 1018.2 |
| 20260505075238 | 13 | 279 | 0.0 | 0.0 | 0.00 | 0.00 | 0.00 | 78 | 1018.0 |
| 20260505074735 | 13 | 14 | 0.0 | 1.6 | 0.00 | 0.00 | 0.00 | 78 | 1018.1 |
| 20260505074232 | 13 | 0 | 0.0 | 0.0 | 0.00 | 0.00 | 0.00 | 78 | 1018.3 |
| 20260505073730 | 13 | 0 | 0.0 | 1.6 | 0.00 | 0.00 | 0.00 | 78 | 1018.0 |
| 20260505073227 | 13 | 26 | 0.0 | 0.0 | 0.00 | 0.00 | 0.00 | 76 | 1018.0 |
| 20260505072724 | 13 | 81 | 0.0 | 0.0 | 0.00 | 0.00 | 0.00 | 76 | 1018.1 |
| 20260505072220 | 14 | 90 | 1.6 | 3.2 | 0.00 | 0.00 | 0.00 | 75 | 1018.0 |
| 20260505071715 | 14 | 74 | 0.0 | 1.6 | 0.00 | 0.00 | 0.00 | 75 | 1018.0 |
| 20260505071213 | 14 | 81 | 0.0 | 0.0 | 0.00 | 0.00 | 0.00 | 74 | 1018.0 |
| 20260505070710 | 14 | 81 | 0.0 | 1.6 | 0.00 | 0.00 | 0.00 | 74 | 1018.1 |
| 20260505070206 | 14 | 337 | 0.0 | 1.6 | 0.00 | 0.00 | 0.00 | 74 | 1017.9 |
| 20260505065702 | 15 | 166 | 0.0 | 3.2 | 0.00 | 0.00 | 0.00 | 74 | 1018.0 |
| 20260505065159 | 14 | 74 | 0.0 | 1.6 | 0.00 | 0.00 | 0.00 | 72 | 1018.2 |
| 20260505064656 | 14 | 54 | 0.0 | 0.0 | 0.00 | 0.00 | 0.00 | 73 | 1017.9 |
| 20260505064154 | 14 | 157 | 0.0 | 1.6 | 0.00 | 0.00 | 0.00 | 73 | 1018.1 |
| 20260505063651 | 15 | 270 | 0.0 | 0.0 | 0.00 | 0.00 | 0.00 | 73 | 1017.9 |
| 20260505063147 | 15 | 99 | 0.0 | 1.6 | 0.00 | 0.00 | 0.00 | 72 | 1017.9 |
| 20260505062644 | 15 | 63 | 0.0 | 1.6 | 0.00 | 0.00 | 0.00 | 71 | 1018.1 |
| 20260505062141 | 15 | 32 | 0.0 | 3.2 | 0.00 | 0.00 | 0.00 | 71 | 1017.9 |
| 20260505061638 | 15 | 0 | 0.0 | 3.2 | 0.00 | 0.00 | 0.00 | 71 | 1017.9 |
| 20260505061137 | 15 | 114 | 0.0 | 3.2 | 0.00 | 0.00 | 0.00 | 70 | 1017.9 |
| 20260505060633 | 14 | 60 | 0.0 | 3.2 | 0.00 | 0.00 | 0.00 | 72 | 1018.0 |
| 20260505060130 | 14 | 90 | 0.0 | 3.2 | 0.00 | 0.00 | 0.00 | 72 | 1018.1 |
| 20260505055625 | 14 | 66 | 0.0 | 3.2 | 0.00 | 0.00 | 0.00 | 72 | 1018.0 |
| 20260505055122 | 13 | 74 | 0.0 | 1.6 | 0.00 | 0.00 | 0.00 | 72 | 1018.1 |
| 20260505054620 | 13 | 345 | 0.0 | 4.8 | 0.00 | 0.00 | 0.00 | 71 | 1018.2 |
| 20260505054118 | 13 | 23 | 3.2 | 3.2 | 0.00 | 0.00 | 0.00 | 71 | 1018.1 |
| 20260505053615 | 13 | 96 | 0.0 | 1.6 | 0.00 | 0.00 | 0.00 | 70 | 1018.2 |
| 20260505053111 | 13 | 40 | 3.2 | 3.2 | 0.00 | 0.00 | 0.00 | 71 | 1018.0 |
| 20260505052608 | 13 | 279 | 0.0 | 0.0 | 0.00 | 0.00 | 0.00 | 72 | 1018.2 |
| 20260505052106 | 13 | 279 | 0.0 | 0.0 | 0.00 | 0.00 | 0.00 | 71 | 1018.2 |
| 20260505051602 | 12 | 15 | 0.0 | 1.6 | 0.00 | 0.00 | 0.00 | 71 | 1018.0 |
| 20260505051101 | 12 | 15 | 0.0 | 1.6 | 0.00 | 0.00 | 0.00 | 74 | 1018.2 |
| 20260505050558 | 12 | 352 | 0.0 | 0.0 | 0.00 | 0.00 | 0.00 | 72 | 1018.3 |
| 20260505041526 | 13 | 68 | 0.0 | 3.2 | 0.00 | 0.00 | 0.00 | 70 | 1018.3 |
| 20260505041023 | 14 | 32 | 0.0 | 0.0 | 0.00 | 0.00 | 0.00 | 69 | 1018.1 |
| 20260505040521 | 13 | 32 | 0.0 | 0.0 | 0.00 | 0.00 | 0.00 | 68 | 1018.1 |
| 20260505040018 | 14 | 32 | 0.0 | 3.2 | 0.00 | 0.00 | 0.00 | 68 | 1018.2 |
| 20260505035514 | 14 | 66 | 0.0 | 0.0 | 0.00 | 0.00 | 0.00 | 66 | 1018.3 |
| 20260505035011 | 14 | 66 | 0.0 | 0.0 | 0.00 | 0.00 | 0.00 | 67 | 1018.2 |
| 20260505034507 | 14 | 66 | 0.0 | 3.2 | 0.00 | 0.00 | 0.00 | 67 | 1018.2 |
| 20260505034004 | 14 | 0 | 0.0 | 1.6 | 0.00 | 0.00 | 0.00 | 66 | 1018.4 |
| 20260505033501 | 15 | 66 | 1.6 | 1.6 | 0.00 | 0.00 | 0.00 | 66 | 1018.2 |
| 20260505032959 | 15 | 180 | 0.0 | 3.2 | 0.00 | 0.00 | 0.00 | 66 | 1018.3 |
| 20260505032456 | 15 | 294 | 0.0 | 1.6 | 0.00 | 0.00 | 0.00 | 65 | 1018.1 |
| 20260505031952 | 15 | 90 | 0.0 | 1.6 | 0.00 | 0.00 | 0.00 | 64 | 1018.3 |
| 20260505031450 | 14 | 20 | 0.0 | 0.0 | 0.00 | 0.00 | 0.00 | 66 | 1018.3 |
| 20260505030946 | 13 | 15 | 0.0 | 1.6 | 0.00 | 0.00 | 0.00 | 66 | 1018.1 |
| 20260505030442 | 13 | 279 | 0.0 | 0.0 | 0.00 | 0.00 | 0.00 | 66 | 1018.2 |
| 20260505025938 | 13 | 106 | 0.0 | 0.0 | 0.00 | 0.00 | 0.00 | 67 | 1018.3 |
| 20260505025435 | 13 | 106 | 0.0 | 0.0 | 0.00 | 0.00 | 0.00 | 67 | 1018.2 |
| 20260505024934 | 13 | 106 | 0.0 | 0.0 | 0.00 | 0.00 | 0.00 | 66 | 1018.3 |
| 20260505024431 | 13 | 294 | 0.0 | 0.0 | 0.00 | 0.00 | 0.00 | 65 | 1018.1 |
| 20260505023928 | 13 | 15 | 0.0 | 0.0 | 0.00 | 0.00 | 0.00 | 65 | 1018.2 |
| 20260505023425 | 13 | 15 | 0.0 | 0.0 | 0.00 | 0.00 | 0.00 | 64 | 1018.2 |
| 20260505022922 | 13 | 14 | 0.0 | 0.0 | 0.00 | 0.00 | 0.00 | 65 | 1018.0 |
| 20260505022420 | 14 | 14 | 0.0 | 1.6 | 0.00 | 0.00 | 0.00 | 66 | 1018.2 |
| 20260505021917 | 14 | 6 | 0.0 | 0.0 | 0.00 | 0.00 | 0.00 | 66 | 1018.0 |
| 20260505021413 | 14 | 6 | 0.0 | 0.0 | 0.00 | 0.00 | 0.00 | 64 | 1017.9 |
| 20260505020909 | 15 | 6 | 0.0 | 0.0 | 0.00 | 0.00 | 0.00 | 65 | 1017.8 |
| 20260505020404 | 15 | 346 | 0.0 | 0.0 | 0.00 | 0.00 | 0.00 | 63 | 1017.8 |
| 20260505015902 | 15 | 346 | 0.0 | 0.0 | 0.00 | 0.00 | 0.00 | 62 | 1017.8 |
| 20260505015359 | 15 | 346 | 0.0 | 0.0 | 0.00 | 0.00 | 0.00 | 61 | 1017.7 |
| 20260505014856 | 15 | 346 | 0.0 | 1.6 | 0.00 | 0.00 | 0.00 | 61 | 1017.8 |
| 20260505014353 | 15 | 74 | 0.0 | 0.0 | 0.00 | 0.00 | 0.00 | 61 | 1017.7 |
| 20260505013849 | 15 | 74 | 0.0 | 0.0 | 0.00 | 0.00 | 0.00 | 59 | 1017.5 |
| 20260505013347 | 15 | 74 | 0.0 | 0.0 | 0.00 | 0.00 | 0.00 | 58 | 1017.7 |
| 20260505012845 | 16 | 74 | 0.0 | 0.0 | 0.00 | 0.00 | 0.00 | 58 | 1017.6 |